Hourly Weather A dos Cunhados

Today, 24 October, Saturday

Time Temperature Precipitation Wind Pressure Humidity
00:00 +13°C° 0 mm 1 mps 761 mmHg 84%
01:00 +12°C° 0 mm 1 mps 761 mmHg 85%
02:00 +12°C° 0 mm 1 mps 760 mmHg 85%
03:00 +12°C° 0 mm 1 mps 760 mmHg 86%
04:00 +12°C° 0 mm 1 mps 760 mmHg 86%
05:00 +12°C° 0 mm 2 mps 760 mmHg 87%
06:00 +13°C° 0 mm 2 mps 760 mmHg 83%
07:00 +14°C° 0 mm 2 mps 760 mmHg 78%
08:00 +16°C° 0 mm 3 mps 760 mmHg 74%
09:00 +15°C° 0 mm 4 mps 760 mmHg 71%
10:00 +17°C° 0 mm 4 mps 760 mmHg 67%
11:00 +17°C° 0 mm 5 mps 760 mmHg 64%
12:00 +17°C° 0 mm 6 mps 760 mmHg 64%
13:00 +19°C° 0 mm 6 mps 759 mmHg 64%
14:00 +19°C° 0 mm 6 mps 759 mmHg 64%
15:00 +17°C° 0 mm 6 mps 758 mmHg 68%
16:00 +16°C° 0 mm 6 mps 758 mmHg 73%
17:00 +15°C° 0 mm 6 mps 758 mmHg 78%
18:00 +15°C° 0 mm 6 mps 758 mmHg 80%
19:00 +15°C° 0 mm 6 mps 758 mmHg 83%
20:00 +15°C° 0 mm 6 mps 758 mmHg 85%
21:00 +15°C° 0.1 mm 6 mps 758 mmHg 84%
22:00 +16°C° 0.1 mm 6 mps 757 mmHg 84%
23:00 +16°C° 0.1 mm 7 mps 757 mmHg 83%

Tomorrow, 25 October, Sunday

Time Temperature Precipitation Wind Pressure Humidity
00:00 +16°C° 0.1 mm 7 mps 756 mmHg 83%
01:00 +16°C° 0.1 mm 7 mps 756 mmHg 83%
02:00 +16°C° 0.1 mm 8 mps 755 mmHg 83%
03:00 +16°C° 0.1 mm 8 mps 755 mmHg 84%
04:00 +16°C° 0.1 mm 8 mps 755 mmHg 86%
05:00 +17°C° 0.1 mm 8 mps 754 mmHg 87%
06:00 +16°C° 1.8 mm 7 mps 754 mmHg 89%
07:00 +16°C° 1.8 mm 6 mps 754 mmHg 90%
08:00 +17°C° 1.8 mm 4 mps 754 mmHg 92%
09:00 +16°C° 0.3 mm 5 mps 754 mmHg 86%
10:00 +17°C° 0.3 mm 5 mps 754 mmHg 80%
11:00 +17°C° 0.3 mm 5 mps 754 mmHg 73%
12:00 +17°C° 0 mm 5 mps 754 mmHg 70%
13:00 +19°C° 0 mm 6 mps 754 mmHg 67%
14:00 +19°C° 0 mm 6 mps 754 mmHg 64%
15:00 +17°C° 0.1 mm 6 mps 754 mmHg 69%
16:00 +16°C° 0.1 mm 6 mps 754 mmHg 73%
17:00 +15°C° 0.1 mm 6 mps 754 mmHg 78%
18:00 +14°C° 0.1 mm 6 mps 755 mmHg 77%
19:00 +14°C° 0.1 mm 6 mps 755 mmHg 76%
20:00 +14°C° 0.1 mm 6 mps 756 mmHg 75%
21:00 +13°C° 0.1 mm 6 mps 756 mmHg 75%
22:00 +13°C° 0.1 mm 6 mps 756 mmHg 75%
23:00 +13°C° 0.1 mm 6 mps 756 mmHg 75%

Day after tomorrow, 26 October, Monday

Time Temperature Precipitation Wind Pressure Humidity
00:00 +11°C° 0 mm 6 mps 756 mmHg 77%
01:00 +12°C° 0 mm 5 mps 756 mmHg 78%
02:00 +10°C° 0 mm 5 mps 756 mmHg 80%
03:00 +10°C° 0 mm 5 mps 757 mmHg 80%
04:00 +11°C° 0 mm 4 mps 757 mmHg 81%
05:00 +11°C° 0 mm 4 mps 757 mmHg 82%
06:00 +12°C° 0 mm 3 mps 758 mmHg 76%
07:00 +13°C° 0 mm 3 mps 758 mmHg 71%
08:00 +14°C° 0 mm 3 mps 758 mmHg 66%
09:00 +16°C° 0 mm 3 mps 758 mmHg 61%
10:00 +16°C° 0 mm 3 mps 758 mmHg 57%
11:00 +17°C° 0 mm 3 mps 759 mmHg 53%
12:00 +17°C° 0 mm 4 mps 758 mmHg 52%
13:00 +17°C° 0 mm 4 mps 758 mmHg 52%
14:00 +17°C° 0 mm 4 mps 758 mmHg 52%
15:00 +15°C° 0 mm 4 mps 758 mmHg 58%
16:00 +14°C° 0 mm 3 mps 758 mmHg 65%
17:00 +12°C° 0 mm 3 mps 758 mmHg 72%
18:00 +12°C° 0 mm 3 mps 758 mmHg 74%
19:00 +13°C° 0 mm 2 mps 758 mmHg 75%
20:00 +12°C° 0 mm 2 mps 758 mmHg 77%
21:00 +13°C° 0 mm 2 mps 758 mmHg 76%
22:00 +13°C° 0 mm 2 mps 758 mmHg 75%
23:00 +13°C° 0 mm 2 mps 758 mmHg 74%

, 27 October, Tuesday

Time Temperature Precipitation Wind Pressure Humidity
00:00 +13°C° 0 mm 2 mps 758 mmHg 74%
01:00 +13°C° 0 mm 2 mps 757 mmHg 74%
02:00 +12°C° 0 mm 3 mps 757 mmHg 74%
03:00 +12°C° 0 mm 3 mps 757 mmHg 74%
04:00 +12°C° 0 mm 3 mps 757 mmHg 74%
05:00 +12°C° 0 mm 3 mps 757 mmHg 74%
06:00 +13°C° 0 mm 3 mps 757 mmHg 72%
07:00 +14°C° 0 mm 3 mps 757 mmHg 71%
08:00 +16°C° 0 mm 3 mps 757 mmHg 70%
09:00 +17°C° 0 mm 4 mps 757 mmHg 68%
10:00 +18°C° 0 mm 4 mps 757 mmHg 66%
11:00 +18°C° 0 mm 4 mps 757 mmHg 64%
12:00 +18°C° 0 mm 4 mps 756 mmHg 65%
13:00 +18°C° 0 mm 4 mps 756 mmHg 66%
14:00 +19°C° 0 mm 4 mps 756 mmHg 67%
15:00 +18°C° 0 mm 4 mps 756 mmHg 72%
16:00 +17°C° 0 mm 4 mps 755 mmHg 76%
17:00 +17°C° 0 mm 4 mps 755 mmHg 81%
18:00 +15°C° 0 mm 4 mps 755 mmHg 82%
19:00 +15°C° 0 mm 5 mps 755 mmHg 83%
20:00 +15°C° 0 mm 5 mps 755 mmHg 85%
21:00 +15°C° 0.1 mm 5 mps 755 mmHg 85%
22:00 +16°C° 0.1 mm 5 mps 755 mmHg 86%
23:00 +16°C° 0.1 mm 5 mps 755 mmHg 87%

27 October, Tuesday

Time Temperature Precipitation Wind Pressure Humidity
00:00 +13°C° 0 mm 2 mps 758 mmHg 74%
01:00 +13°C° 0 mm 2 mps 757 mmHg 74%
02:00 +12°C° 0 mm 3 mps 757 mmHg 74%
03:00 +12°C° 0 mm 3 mps 757 mmHg 74%
04:00 +12°C° 0 mm 3 mps 757 mmHg 74%
05:00 +12°C° 0 mm 3 mps 757 mmHg 74%
06:00 +13°C° 0 mm 3 mps 757 mmHg 72%
07:00 +14°C° 0 mm 3 mps 757 mmHg 71%
08:00 +16°C° 0 mm 3 mps 757 mmHg 70%
09:00 +17°C° 0 mm 4 mps 757 mmHg 68%
10:00 +18°C° 0 mm 4 mps 757 mmHg 66%
11:00 +18°C° 0 mm 4 mps 757 mmHg 64%
12:00 +18°C° 0 mm 4 mps 756 mmHg 65%
13:00 +18°C° 0 mm 4 mps 756 mmHg 66%
14:00 +19°C° 0 mm 4 mps 756 mmHg 67%
15:00 +18°C° 0 mm 4 mps 756 mmHg 72%
16:00 +17°C° 0 mm 4 mps 755 mmHg 76%
17:00 +17°C° 0 mm 4 mps 755 mmHg 81%
18:00 +15°C° 0 mm 4 mps 755 mmHg 82%
19:00 +15°C° 0 mm 5 mps 755 mmHg 83%
20:00 +15°C° 0 mm 5 mps 755 mmHg 85%
21:00 +15°C° 0.1 mm 5 mps 755 mmHg 85%
22:00 +16°C° 0.1 mm 5 mps 755 mmHg 86%
23:00 +16°C° 0.1 mm 5 mps 755 mmHg 87%

28 October, Wednesday

Time Temperature Precipitation Wind Pressure Humidity
00:00 +16°C° 0.1 mm 5 mps 755 mmHg 88%
01:00 +16°C° 0.1 mm 5 mps 755 mmHg 89%
02:00 +17°C° 0.1 mm 4 mps 755 mmHg 91%
03:00 +17°C° 0.6 mm 4 mps 755 mmHg 92%
04:00 +17°C° 0.6 mm 4 mps 755 mmHg 93%
05:00 +18°C° 0.6 mm 4 mps 755 mmHg 94%
06:00 +17°C° 0.3 mm 3 mps 755 mmHg 94%
07:00 +17°C° 0.3 mm 3 mps 756 mmHg 94%
08:00 +17°C° 0.3 mm 3 mps 756 mmHg 94%
09:00 +18°C° 0.1 mm 3 mps 756 mmHg 87%
10:00 +19°C° 0.1 mm 3 mps 757 mmHg 80%
11:00 +20°C° 0.1 mm 3 mps 757 mmHg 73%
12:00 +20°C° 0 mm 3 mps 757 mmHg 71%
13:00 +20°C° 0 mm 4 mps 757 mmHg 69%
14:00 +20°C° 0 mm 4 mps 757 mmHg 66%
15:00 +18°C° 0 mm 3 mps 757 mmHg 72%
16:00 +17°C° 0 mm 3 mps 757 mmHg 77%
17:00 +15°C° 0 mm 2 mps 757 mmHg 83%
18:00 +15°C° 0 mm 2 mps 757 mmHg 83%
19:00 +14°C° 0 mm 2 mps 758 mmHg 84%
20:00 +14°C° 0 mm 2 mps 758 mmHg 85%
21:00 +13°C° 0 mm 2 mps 758 mmHg 86%
22:00 +13°C° 0 mm 2 mps 758 mmHg 87%
23:00 +13°C° 0 mm 2 mps 758 mmHg 88%

29 October, Thursday

Time Temperature Precipitation Wind Pressure Humidity
00:00 +12°C° 0 mm 2 mps 758 mmHg 88%
01:00 +12°C° 0 mm 2 mps 758 mmHg 89%
02:00 +12°C° 0 mm 2 mps 757 mmHg 89%
03:00 +12°C° 0 mm 1 mps 757 mmHg 89%
04:00 +12°C° 0 mm 1 mps 757 mmHg 89%
05:00 +11°C° 0 mm 1 mps 757 mmHg 88%
06:00 +13°C° 0 mm 1 mps 757 mmHg 83%
07:00 +14°C° 0 mm 1 mps 758 mmHg 78%
08:00 +15°C° 0 mm 1 mps 758 mmHg 73%
09:00 +18°C° 0 mm 1 mps 758 mmHg 67%
10:00 +19°C° 0 mm 1 mps 758 mmHg 62%
11:00 +21°C° 0 mm 1 mps 758 mmHg 56%
12:00 +21°C° 0 mm 1 mps 758 mmHg 56%
13:00 +22°C° 0 mm 1 mps 757 mmHg 57%
14:00 +22°C° 0 mm 1 mps 757 mmHg 57%
15:00 +20°C° 0 mm 1 mps 757 mmHg 63%
16:00 +19°C° 0 mm 1 mps 757 mmHg 69%
17:00 +16°C° 0 mm 1 mps 757 mmHg 75%
18:00 +16°C° 0 mm 1 mps 757 mmHg 75%
19:00 +16°C° 0 mm 2 mps 757 mmHg 76%
20:00 +16°C° 0 mm 2 mps 758 mmHg 77%
21:00 +16°C° 0 mm 2 mps 758 mmHg 78%
22:00 +16°C° 0 mm 1 mps 757 mmHg 79%
23:00 +16°C° 0 mm 1 mps 757 mmHg 79%
Show more